Regional Weather Roundup
Issued by NWS Sioux Falls, SD

Home | Current Version | Previous Version | Text Only | Print | Product List | Glossary On
Versions: 1 2 3 4 5 6 7 8 9 10 11 12 13 14 15 16 17 18 19 20 21 22 23 24 25 26 27 28 29 30 31 32 33 34 35 36 37 38 39 40 41 42 43 44 45 46 47 48 49 50
000
ASUS43 KFSD 260210
RWRFSD

WEATHER ROUNDUP FOR SE SOUTH DAKOTA/SW MINNESOTA/NW IOWA
NATIONAL WEATHER SERVICE SIOUX FALLS SD
800 PM CST SUN JAN 25 2015

NOTE: "FAIR" INDICATES FEW OR NO CLOUDS BELOW 12,000 FEET WITH NO
SIGNIFICANT WEATHER AND OR OBSTRUCTIONS TO VISIBILITY.


SDZ038>040-050-052>070-260300-
SOUTHEAST SOUTH DAKOTA

CITY           SKY/WX    TMP DP  RH WIND       PRES   REMARKS
CHAMBERLAIN    CLOUDY    32  30  92 S6        29.97F WCI  26
HURON          CLOUDY    33  30  88 S9        29.98F WCI  25
MADISON        CLOUDY    32  32 100 SW6       30.00S WCI  26
MITCHELL       CLOUDY    36  32  85 S6        30.02F
SIOUX FALLS    CLOUDY    33  30  88 W6        30.03R WCI  28
WINNER         CLOUDY    39  30  70 SW10      29.97F
YANKTON        PTCLDY    34  28  80 SW3       30.05F
$$

MNZ071-072-080-081-089-090-097-098-260300-
SOUTHWEST MINNESOTA

CITY           SKY/WX    TMP DP  RH WIND       PRES   REMARKS
FAIRMONT       CLOUDY    28  21  74 CALM      30.04S
JACKSON        CLOUDY    30  27  86 CALM      30.03S
LUVERNE        CLOUDY    34  32  93 CALM      30.03S FOG
MARSHALL       CLOUDY    27  23  86 CALM      30.04S
MONTEVIDEO     CLOUDY    27  27 100 CALM      30.04S
PIPESTONE      CLOUDY    34  30  86 W7        30.00R WCI  28
REDWOOD FALLS  CLOUDY    30  24  78 SE3       30.04R
TRACY          CLOUDY    28  27  95 CALM      30.02F
WINDOM         CLOUDY    28  27  93 CALM      30.04R
WORTHINGTON    CLOUDY    28  25  86 CALM      30.03R
$$

IAZ001>003-012>014-020>022-031-032-NEZ013-014-SDZ071-260300-
NORTHWEST IOWA

CITY           SKY/WX    TMP DP  RH WIND       PRES   REMARKS
CHEROKEE       CLOUDY    32  31  96 S3        30.05S
DENISON        CLOUDY    32  30  93 CALM      30.05R
ESTHERVILLE    CLOUDY    27  24  89 CALM      30.03S
LE MARS        CLOUDY    34  32  93 CALM      30.06S
ORANGE CITY    CLOUDY    34  30  86 W6        30.04S WCI  29
SHELDON        CLOUDY    32  32 100 SW5       30.03R WCI  27
SIOUX CITY     CLOUDY    36  32  85 W5        30.07R
SPENCER        CLOUDY    32  28  85 CALM      30.03S
STORM LAKE     CLOUDY    30  30 100 CALM      30.05S
$$

ABBREVIATIONS USED IN REMARKS
   TC - TEMPERATURE IN CELSIUS
  WCI - WIND CHILL INDEX
   HX - HEAT INDEX
  VSB - VISIBILITY



USA.gov is the U.S. government's official web portal to all federal, state and local government web resources and services.